This demonstration page uses our WeatherBlox Daily Observations layout. Learn more.

Left ArrowRight Arrow

Hourly Observations for July 31, 2018

Temp ( °F °C ) Dew Point ( °F °C ) Humidity (%) Winds ( mph kmh ) Pressure ( in mb ) Visibility ( mi km ) Precip ( " mm )
12:16 am 00:16 Cloudy 64 18 64 18 100 100 NE 3 6 30.03 1017 7 11.26538 N/A
12:36 am 00:36 Cloudy 64 18 64 18 100 100 NE 5 7 30.03 1017 7 11.26538 N/A
12:57 am 00:57 Cloudy 64 18 64 18 100 100 NNE 3 6 30.03 1017 7 11.26538 N/A
1:16 am 01:16 Cloudy 64 18 64 18 100 100 N N/A 30.03 1017 5 8.0467 N/A
1:37 am 01:37 Cloudy 64 18 64 18 100 100 N N/A 30.03 1017 5 8.0467 N/A
1:56 am 01:56 Mostly Cloudy 64 18 64 18 100 100 N 5 7 30.03 1017 5 8.0467 N/A
2:17 am 02:17 Mostly Cloudy 64 18 64 18 100 100 NNE 5 7 30.03 1017 5 8.0467 N/A
2:36 am 02:36 Mostly Cloudy 64 18 64 18 100 100 NNE 5 7 30 1016 5 8.0467 N/A
2:56 am 02:56 Partly Cloudy 64 18 64 18 100 100 NE 3 6 30 1016 5 8.0467 N/A
3:17 am 03:17 Partly Cloudy 64 18 64 18 100 100 NE 5 7 30 1016 5 8.0467 N/A
3:36 am 03:36 Partly Cloudy 64 18 64 18 100 100 NNE 7 11 30 1016 5 8.0467 N/A
3:56 am 03:56 Mostly Cloudy 64 18 64 18 100 100 NNE 6 9 30 1016 5 8.0467 N/A
4:17 am 04:17 Cloudy 64 18 64 18 100 100 NNE 7 11 30 1016 5 8.0467 N/A
4:36 am 04:36 Cloudy 64 18 64 18 100 100 NE 5 7 30 1016 5 8.0467 N/A
4:57 am 04:57 Cloudy 64 18 64 18 100 100 ENE 3 6 30 1016 5 8.0467 N/A
5:16 am 05:16 Cloudy 64 18 64 18 100 100 ENE 3 6 30 1016 4 6.43736 N/A
5:36 am 05:36 Cloudy 64 18 64 18 100 100 NE 6 9 30 1016 2.5 4.02335 N/A
5:57 am 05:57 Cloudy 64 18 64 18 100 100 NNE 6 9 30 1016 3 4.82802 N/A
6:16 am 06:16 Cloudy 64 18 64 18 100 100 NNE 6 9 30 1016 3 4.82802 N/A
6:37 am 06:37 Cloudy 64 18 64 18 100 100 NNE 7 11 30 1016 3 4.82802 N/A
6:56 am 06:56 Cloudy 64 18 64 18 100 100 NE 6 9 30 1016 3 4.82802 N/A
7:16 am 07:16 Cloudy 63 17 63 17 100 100 ENE 6 9 30 1016 2.5 4.02335 N/A
7:37 am 07:37 Cloudy 63 17 63 17 100 100 ENE 6 9 29.97 1015 3 4.82802 N/A
7:56 am 07:56 Cloudy 64 18 64 18 100 100 NE 3 6 29.97 1015 3 4.82802 N/A
8:17 am 08:17 Cloudy 64 18 64 18 100 100 NNE 5 7 29.97 1015 3 4.82802 N/A
8:37 am 08:37 Cloudy 64 18 64 18 100 100 NNE 3 6 29.97 1015 3 4.82802 N/A
8:56 am 08:56 Cloudy 64 18 64 18 100 100 NNE 5 7 29.97 1015 2.5 4.02335 N/A
9:17 am 09:17 Cloudy 64 18 64 18 100 100 NNW 5 7 30 1016 2.5 4.02335 N/A
9:36 am 09:36 Cloudy 64 18 64 18 100 100 N N/A 30 1016 2 3.21868 N/A
9:57 am 09:57 Cloudy 64 18 64 18 100 100 NNE 6 9 30 1016 1.25 2.011675 N/A
10:16 am 10:16 Cloudy 64 18 64 18 100 100 NNE 9 15 29.97 1015 1.25 2.011675 N/A
10:37 am 10:37 Cloudy 64 18 64 18 100 100 NE 10 17 29.97 1015 2 3.21868 N/A
10:56 am 10:56 Cloudy 64 18 64 18 100 100 NNE 7 11 29.97 1015 3 4.82802 N/A
11:17 am 11:17 Cloudy 66 19 66 19 100 100 NE 7 11 29.97 1015 4 6.43736 N/A
11:37 am 11:37 Cloudy 66 19 66 19 100 100 NE 8 13 29.97 1015 5 8.0467 N/A
11:56 am 11:56 Cloudy 66 19 66 19 100 100 NNE 6 9 29.97 1015 5 8.0467 N/A
12:17 pm 12:17 Cloudy 66 19 66 19 100 100 NNE 7 11 29.97 1015 10 16.0934 N/A
12:36 pm 12:36 Cloudy 68 20 68 20 100 100 NNE 8 13 29.97 1015 10 16.0934 N/A
12:56 pm 12:56 Cloudy 68 20 68 20 100 100 NNE 8 13 29.97 1015 10 16.0934 N/A
1:16 pm 13:16 Cloudy 68 20 68 20 100 100 NE 8 13 29.97 1015 10 16.0934 N/A
1:36 pm 13:36 Cloudy 68 20 68 20 100 100 NE 7 11 29.97 1015 10 16.0934 N/A
1:57 pm 13:57 Cloudy 68 20 68 20 100 100 N 6 9 29.97 1015 3 4.82802 N/A
2:16 pm 14:16 Cloudy 66 19 66 19 100 100 N 10 17 29.97 1015 0.5 0.80467 N/A
2:37 pm 14:37 Cloudy 66 19 66 19 100 100 N 9 15 29.94 1014 2 3.21868 N/A
2:56 pm 14:56 Cloudy 68 20 68 20 100 100 NNE 9 15 29.94 1014 2.5 4.02335 N/A
3:16 pm 15:16 Cloudy 70 21 70 21 100 100 NNE 10 17 29.91 1013 4 6.43736 N/A
3:37 pm 15:37 Cloudy 70 21 70 21 100 100 NNE 9 15 29.91 1013 10 16.0934 N/A
3:56 pm 15:56 Cloudy 70 21 70 21 100 100 NNE 8 13 29.91 1013 7 11.26538 N/A
4:17 pm 16:17 Cloudy 68 20 68 20 100 100 ENE 8 13 29.88 1012 7 11.26538 N/A
4:36 pm 16:36 Cloudy 70 21 70 21 100 100 ENE 8 13 29.88 1012 10 16.0934 N/A
4:56 pm 16:56 Cloudy 70 21 70 21 100 100 NNE 8 13 29.88 1012 10 16.0934 N/A
5:17 pm 17:17 Cloudy 70 21 70 21 100 100 N 5 7 29.88 1012 10 16.0934 N/A
5:36 pm 17:36 Cloudy 70 21 70 21 100 100 N 6 9 29.88 1012 10 16.0934 N/A
5:57 pm 17:57 Cloudy 70 21 70 21 100 100 N 8 13 29.88 1012 10 16.0934 N/A
6:16 pm 18:16 Cloudy 70 21 70 21 100 100 N 6 9 29.88 1012 10 16.0934 N/A
6:37 pm 18:37 Cloudy 70 21 70 21 100 100 N 5 7 29.88 1012 10 16.0934 N/A
6:56 pm 18:56 Cloudy 70 21 70 21 100 100 NNW 6 9 29.88 1012 7 11.26538 N/A
7:16 pm 19:16 Cloudy 70 21 70 21 100 100 NW 6 9 29.88 1012 10 16.0934 N/A
7:37 pm 19:37 Cloudy 68 20 68 20 100 100 NW 6 9 29.88 1012 10 16.0934 N/A
7:56 pm 19:56 Cloudy 68 20 68 20 100 100 NW 6 9 29.88 1012 10 16.0934 N/A
8:17 pm 20:17 Cloudy 68 20 68 20 100 100 WNW 5 7 29.88 1012 10 16.0934 N/A
8:36 pm 20:36 Mostly Cloudy 66 19 66 19 100 100 W 3 6 29.91 1013 10 16.0934 N/A
8:56 pm 20:56 Cloudy 66 19 66 19 100 100 WNW 5 7 29.91 1013 10 16.0934 N/A
9:17 pm 21:17 Cloudy 66 19 66 19 100 100 W 3 6 29.94 1014 10 16.0934 N/A
9:36 pm 21:36 Cloudy 66 19 66 19 100 100 W 7 11 29.94 1014 10 16.0934 N/A
9:56 pm 21:56 Cloudy 66 19 66 19 100 100 WNW 3 6 29.94 1014 10 16.0934 N/A
10:17 pm 22:17 Cloudy 66 19 66 19 100 100 NNW 9 15 29.94 1014 4 6.43736 N/A
10:36 pm 22:36 Cloudy 66 19 66 19 100 100 NNW 9 15 29.94 1014 10 16.0934 N/A
10:57 pm 22:57 Cloudy 66 19 66 19 100 100 N 9 15 29.97 1015 10 16.0934 N/A
11:16 pm 23:16 Cloudy 66 19 66 19 100 100 N 3 6 29.97 1015 10 16.0934 N/A
11:37 pm 23:37 Cloudy 64 18 64 18 100 100 N 5 7 29.97 1015 10 16.0934 N/A
11:57 pm 23:57 Cloudy 64 18 64 18 100 100 N 6 9 29.97 1015 10 16.0934 N/A

Powered by AerisWeather